Retour au catalogue

CZ-6A DEB

ActifPO
NORAD 60813·DEBRIS·🇨🇳 China

Lancé Aug 6, 2024 depuis Taiyuan Satellite Launch Center

Loading…

Prochains Passages (prochaines 24 heures)

TLE

FraisSource: Space-Track

Époque: Sep 14, 2026, 17:23 UTC

1 60813U 24140GQ  26257.72463814  .00000829  00000-0  32997-3 0  9998
2 60813  88.9166 256.2640 0024666 170.0866 190.0820 14.27600974108936

Suivez CZ-6A DEB en temps réel avec AllMySat

Download on the App Store